FW1075 Weather Reports


time (UTC)temp
F
wind
direction
speed
knots
gust
knots
rain 1hr
in
rain 24hr
in
rain mn
in
humidity
%
barometer
mb
20260504070122 51 267 2.6 5.2 0.00 0.00 0.00 58 1011.2
20260504060122 50 243 2.6 5.2 0.00 0.00 0.00 59 1011.2
20260504050121 50 271 1.7 4.3 0.00 0.00 0.00 61 1011.0
20260504045121 50 262 1.7 3.5 0.00 0.00 0.00 61 1011.0
20260504044122 49 273 1.7 3.5 0.00 0.00 0.00 62 1010.9
20260504043121 49 250 1.7 3.5 0.00 0.00 0.00 63 1010.8
20260504042123 48 255 1.7 3.5 0.00 0.00 0.00 64 1010.7
20260504041121 47 260 0.9 1.7 0.00 0.00 0.00 65 1010.8
20260504040121 47 269 0.9 2.6 0.00 0.00 0.00 65 1010.8
20260504035121 47 180 0.0 0.0 0.00 0.00 0.00 64 1010.7
20260504034121 47 225 0.0 2.6 0.00 0.00 0.00 63 1010.7
20260504033121 47 218 0.0 1.7 0.00 0.00 0.00 62 1010.6
20260504032142 48 180 0.0 0.0 0.00 0.00 0.00 61 1010.6
20260504031121 48 258 0.0 1.7 0.00 0.00 0.00 60 1010.5
20260504030121 48 225 0.0 0.0 0.00 0.00 0.00 59 1010.5
20260504025121 48 180 0.0 0.0 0.00 0.00 0.00 59 1010.5
20260504024122 48 241 0.9 7.0 0.00 0.00 0.00 58 1010.6
20260504023121 48 212 0.0 2.6 0.00 0.00 0.00 60 1010.6
20260504022122 48 203 0.0 0.0 0.00 0.00 0.00 59 1010.6
20260504021122 48 180 0.0 0.0 0.00 0.00 0.00 59 1010.6
20260504020122 48 203 0.0 0.0 0.00 0.00 0.00 56 1010.6
20260504015123 49 203 0.0 0.0 0.00 0.00 0.00 55 1010.5
20260504014122 50 338 0.0 0.0 0.00 0.00 0.00 53 1010.4
20260504013124 52 23 0.0 0.0 0.00 0.00 0.00 48 1010.2
20260504012124 52 90 0.0 0.0 0.00 0.00 0.00 48 1010.1
20260504011124 52 203 0.0 0.0 0.00 0.00 0.00 48 1010.0
20260504010121 53 270 0.0 0.0 0.00 0.00 0.00 47 1009.8
20260504005121 53 287 0.0 1.7 0.00 0.00 0.00 45 1009.8
20260504004121 54 291 0.9 1.7 0.00 0.00 0.00 44 1009.6
20260504003122 55 260 0.0 2.6 0.00 0.00 0.00 43 1009.5
20260504002121 56 283 0.9 2.6 0.00 0.00 0.00 41 1009.2
20260504001125 56 284 1.7 3.5 0.00 0.00 0.00 40 1009.2
20260504000145 57 293 2.6 4.3 0.00 0.00 0.00 39 1009.2
20260503235124 57 296 2.6 6.1 0.00 0.00 0.00 38 1009.0
20260503234121 58 302 3.5 7.0 0.00 0.00 0.00 37 1008.8
20260503233121 58 310 4.3 7.0 0.00 0.00 0.00 37 1008.7
20260503232121 58 315 4.3 8.7 0.00 0.00 0.00 36 1008.7
20260503231121 59 305 4.3 9.6 0.00 0.00 0.00 36 1008.6
20260503230121 59 317 4.3 9.6 0.00 0.00 0.00 36 1008.6
20260503225127 59 316 5.2 8.7 0.00 0.00 0.00 35 1008.6
20260503224126 59 305 6.1 10.4 0.00 0.00 0.00 34 1008.5
20260503223124 59 291 4.3 11.3 0.00 0.00 0.00 34 1008.2
20260503222123 60 293 5.2 10.4 0.00 0.00 0.00 34 1008.5
20260503221122 60 302 7.0 11.3 0.00 0.00 0.00 34 1008.4
20260503220123 60 44 6.1 9.6 0.00 0.00 0.00 33 1008.4
20260503215122 60 295 6.1 13.9 0.00 0.00 0.00 34 1008.5
20260503214123 61 299 7.0 14.8 0.00 0.00 0.00 34 1008.5
20260503213125 61 328 6.1 13.9 0.00 0.00 0.00 34 1008.2
20260503212121 62 277 6.1 16.5 0.00 0.00 0.00 33 1008.1
20260503211143 63 285 5.2 14.8 0.00 0.00 0.00 33 1008.1
20260503210121 63 289 6.1 11.3 0.00 0.00 0.00 33 1008.1
20260503205121 63 340 7.0 15.6 0.00 0.00 0.00 33 1008.2
20260503204122 63 316 6.1 12.2 0.00 0.00 0.00 32 1008.1
20260503203121 63 284 6.1 12.2 0.00 0.00 0.00 32 1008.2
20260503202121 63 292 6.1 12.2 0.00 0.00 0.00 33 1008.4
20260503201121 62 300 8.7 15.6 0.00 0.00 0.00 34 1008.4
20260503200142 62 322 6.1 10.4 0.00 0.00 0.00 34 1008.2
20260503195142 63 291 7.8 15.6 0.00 0.00 0.00 34 1008.2
20260503194122 64 295 5.2 10.4 0.00 0.00 0.00 34 1008.5
20260503193121 63 267 5.2 10.4 0.00 0.00 0.00 35 1008.6
20260503192123 62 288 7.8 15.6 0.00 0.00 0.00 35 1008.8
20260503191121 61 295 6.1 10.4 0.00 0.00 0.00 36 1009.0
20260503190121 61 298 6.1 10.4 0.00 0.00 0.00 37 1009.0
20260503185126 60 299 5.2 10.4 0.00 0.00 0.00 38 1009.2
20260503185121 61 300 5.2 10.4 0.00 0.00 0.00 37 1009.2
20260503184123 59 307 6.1 11.3 0.00 0.00 0.00 40 1009.2
20260503183143 59 296 6.1 10.4 0.00 0.00 0.00 39 1009.4
20260503182122 60 328 6.1 11.3 0.00 0.00 0.00 39 1009.2
20260503181121 59 321 6.1 9.6 0.00 0.00 0.00 40 1009.1
20260503180122 57 289 7.0 13.0 0.00 0.00 0.00 41 1009.1
20260503175143 57 290 7.0 11.3 0.00 0.00 0.00 40 1009.1
20260503174123 58 333 6.1 11.3 0.00 0.00 0.00 40 1009.1
20260503173144 59 315 6.1 14.8 0.00 0.00 0.00 40 1009.1
20260503172122 58 315 5.2 12.2 0.00 0.00 0.00 39 1009.4
20260503171143 57 279 7.0 11.3 0.00 0.00 0.00 40 1009.2
20260503170121 58 305 7.0 13.9 0.00 0.00 0.00 39 1009.2
20260503160122 54 312 7.0 11.3 0.00 0.00 0.00 43 1009.4
20260503150125 51 307 7.0 13.9 0.00 0.00 0.00 48 1009.7
20260503140122 53 324 6.1 9.6 0.00 0.00 0.00 53 1009.8
20260503131121 51 306 5.2 8.7 0.00 0.00 0.00 56 1009.8
20260503130122 51 309 4.3 7.8 0.00 0.00 0.00 57 1009.8
20260503120121 49 315 4.3 7.8 0.00 0.00 0.00 60 1009.7
20260503110122 46 303 4.3 8.7 0.00 0.00 0.00 66 1009.2
20260503100143 44 26 2.6 4.3 0.00 0.00 0.00 69 1008.4
20260503090121 45 23 2.6 6.1 0.00 0.00 0.00 65 1008.2
20260503081121 46 345 3.5 6.1 0.00 0.00 0.00 63 1008.4
20260503080121 46 323 3.5 6.1 0.00 0.00 0.00 63 1008.4
20260503072121 48 357 2.6 5.2 0.00 0.00 0.00 61 1008.2
20260503071121 48 282 3.5 7.0 0.00 0.00 0.00 60 1008.2